Regional Weather Roundup
Issued by NWS

Home | Current Version | Previous Version | Graphics & Text | Print | Product List | Glossary On
Versions: 1 2 3 4 5 6 7 8 9 10 11 12 13 14 15 16 17 18 19 20 21 22 23 24 25 26 27 28 29 30 31 32 33 34 35 36 37 38 39 40 41 42 43 44 45 46 47 48 49 50
093
ASUS45 KBOU 261507
RWRCO

WEATHER ROUNDUP FOR COLORADO
NATIONAL WEATHER SERVICE DENVER/BOULDER CO
900 AM MDT MON JUN 26 2017

NOTE: "FAIR" INDICATES FEW OR NO CLOUDS BELOW 12000 FEET WITH NO
SIGNIFICANT WEATHER AND/OR OBSTRUCTIONS TO VISIBILITY.

COZ001>005-013-030-031-261600-
...NORTHWEST COLORADO...

CITY           SKY/WX    TMP DP  RH WIND       PRES   REMARKS
CRAIG          FAIR      68  34  28 E12       30.31F
HAYDEN         FAIR      63  34  34 E13       30.34S
MEEKER         FAIR      64  32  30 CALM      30.32F
RABBIT EARS PA FAIR      54  30  40 CALM      30.60S
STEAMBOAT SPGS FAIR      58  38  46 CALM      30.36F
WALDEN         FAIR      55  32  41 CALM      30.47F
$$

COZ006>008-011-261600-
...WEST CENTRAL VALLEYS...

CITY           SKY/WX    TMP DP  RH WIND       PRES   REMARKS
GRAND JUNCTION FAIR      79  33  19 SE12      30.20S
MONTROSE       FAIR      71  36  27 S3        30.28F
EAGLE          SUNNY     57  34  41 CALM      30.41F
RIFLE          FAIR      69  33  26 VRB6      30.27F
DELTA          FAIR      70  34  26 CALM      30.25S
NUCLA          NOT AVBL
$$

COZ017>023-064>068-261600-
...SOUTHWEST COLORADO...

CITY           SKY/WX    TMP DP  RH WIND       PRES   REMARKS
DURANGO        FAIR      68  42  38 E6        30.36S
CORTEZ         FAIR      72  40  31 VRB3      30.28F
PAGOSA SPRINGS FAIR      66  39  36 CALM      30.44S
TELLURIDE      FAIR      64  30  27 CALM      30.51S
WOLF CREEK PAS FAIR      54  32  43 S3        30.75S
$$

COZ009-010-012-014-032>034-037-058>063-261600-
...CENTRAL COLORADO...

CITY           SKY/WX    TMP DP  RH WIND       PRES   REMARKS
ASPEN          FAIR      62  32  32 CALM      30.41F
BUENA VISTA    FAIR      62  47  58 E6        30.47F
COPPER MTN     FAIR      54  28  37 CALM      30.71S
BERTHOUD PASS  FAIR      45  32  61 N3        30.74R
COTTONWOOD PAS FAIR      61  45  55 CALM      30.58S
GUNNISON       FAIR      58  37  45 CALM      30.45F
KREMMLING      NOT AVBL
LEADVILLE      FAIR      54  40  59 NW5       30.56F
MONARCH PASS   FAIR      50  41  71 SW5       30.81S
SALIDA         FAIR      64  50  60 CALM      30.51F
SUNLIGHT       FAIR      55  25  30 NE3       30.64S
WILKERSON PASS FAIR      46  41  81 CALM      30.69S
$$

COZ069>075-261600-
...SAN LUIS VALLEY/SANGRE DE CRISTO MOUNTAINS...

CITY           SKY/WX    TMP DP  RH WIND       PRES   REMARKS
ALAMOSA        FAIR      60  46  59 SW5       30.44S
DEL NORTE      FAIR      62  46  55 E5        30.47S
LA VETA PASS   FAIR      52  48  87 MISG      30.69F
SAGUACHE       FAIR      63  45  51 SE7       30.47F
$$

COZ035-036-038>040-261600-
...NORTHERN COLORADO FRONT RANGE...

CITY           SKY/WX    TMP DP  RH WIND       PRES   REMARKS
DENVER INTL AP FAIR      67  52  58 NW7       30.28S
DMNS CITY PARK   N/A     67  53  61 N8G15     30.28S
AURORA         MOSUNNY   67  52  58 NW5       30.29S
FRONT RANGE AP FAIR      70  54  56 N6        30.29S
ERIE MUNI ARPT FAIR      64  55  72 NW3       30.28S
BOULDER MUN AP FAIR      63  50  63 CALM      30.28S
CENTENNIAL     FAIR      68  53  58 VRB6      30.30S
BROOMFIELD     FAIR      63  52  67 N6        30.31S
FORT COLLINS   FAIR      65  52  62 N8        30.27F
LONGMONT       FAIR      69  50  50 CALM      30.29S
$$

COZ041-046-047-076>085-087-088-261600-
...PIKES PEAK/PALMER DIVIDE AND SOUTHERN FOOTHILLS...

CITY           SKY/WX    TMP DP  RH WIND       PRES   REMARKS
COLO. SPRINGS  PTSUNNY   61  58  90 SE7       30.36F
A. F. ACADEMY  MOSUNNY   63  56  79 S5        30.36F
SCHRIEVER AFB  PTSUNNY   58  57  97 SW7       30.36F
CHEYENNE MTN   CLOUDY    58  57  97 SE5       30.34S
ELLICOTT       CLOUDY   N/A N/A N/A W7        30.35S
FALCON           N/A     61  56  83 SW9G18    30.40S
FORT CARSON    PTSUNNY   64  58  83 SE7       30.33F
LIMON          FAIR      69  57  65 SW10      30.29F
MONUMENT HILL  FAIR      68  50  52 SW10      30.39S
CANON CITY     MOSUNNY   68  63  83 SW3       30.31F
WALSENBURG     FAIR      66  59  77 CALM      30.35F
TRINIDAD       FAIR      67  55  65 W13       30.34F
$$

COZ042>045-048>051-090-091-261600-
...NORTHEAST COLORADO...

CITY           SKY/WX    TMP DP  RH WIND       PRES   REMARKS
GREELEY ARPT   FAIR      66  57  72 CALM      30.26F
AKRON          FAIR      72  57  59 W8        30.25F
BURLINGTON     FAIR      68  59  73 SW9       30.26S
WRAY           FAIR      72  61  68 SW5       30.23S
YUMA           FAIR      68  59  73 W3        30.24S
STERLING       FAIR      64  57  77 CALM      30.23S
HOLYOKE        NOT AVBL
FORT MORGAN    FAIR      68  55  63 SW3       30.25F
$$

COZ086-089-092>099-261600-
...SOUTHEAST COLORADO...

CITY           SKY/WX    TMP DP  RH WIND       PRES   REMARKS
PUEBLO         FAIR      67  59  75 VRB3      30.28F
LA JUNTA       FAIR      69  58  67 W5        30.26F
LAMAR          FAIR      69  58  67 CALM      30.23F
SPRINGFIELD      N/A     70  59  68 VRB6      30.26F
$$




USA.gov is the U.S. government's official web portal to all federal, state and local government web resources and services.